sat.trackr.live / text

‹ back to catalog

IRIS

NORAD 39197 · 2013-033A

PAYLOAD ACTIVE UNKNOWN

§ Identity

Operator
Country
US
Launch date
2013-06-28
Launch site
WRAS
Launch vehicle
Mass (kg)
RCS (m²)
1.32

Purposes: science

External: N2YO · Heavens-Above · Gunter

§ Orbital elements

Epoch: 2026-09-19T23:25:21.324864Z

Period
96.90 min
Inclination
97.9274°
Eccentricity
0.0024725
Mean motion
14.86042907 rev/d
Perigee alt
593.0 km
Apogee alt
627.6 km
Semi-major
6,988.5 km
B*
7.2632e-5
RAAN
101.9501°
Arg perigee
12.0271°
Mean anomaly
348.1530°
Rev number
71,445

§ Raw data

IRIS1 39197U 13033A   26262.97594126  .00000582  00000+0  72632-4 0  99982 39197  97.9274 101.9501 0024725  12.0271 348.1530 14.86042907714455

JSON: /api/v1/satellites/39197 · /tle

For live sub-satellite position, see the globe view (requires WebGL).

§ Visibility from observer

Set your observer location to see the next 7 days of passes ≥ 10°. The values pass through the URL so the page stays shareable.

No JS? Fill the form by hand. The geolocation button needs JavaScript.

§ Radio — SatNOGS DB

ModeDescriptionDownlinkUplink
FM S-band telemetry 2.221 GHz

1 transmitter · refreshed weekly from db.satnogs.org